Date String (YYYY-MM-DD hh:mm:ss) UTC,Instrument flags,Ambient pressure (hPa),Sample flow (lpm),Bypass flow (lpm),Sample temperature (°C),Ambient temperature (°C),ASC tube jacket temperature (°C),LED temperature (°C),Box temperature (°C),Sample RH (%),Span deviation,Mass concentration (μg/m³),Mass concentration (μg/m³),Mass concentration (μg/m³)
DateTimeUTC,F1_M11,P_M11,Q1_M11,Q2_M11,T1_M11,T2_M11,T3_M11,T4_M11,T5_M11,U1_M11,ZSPAN_M11,X0_M11,X2_M11,X1_M11
2022-08-02 14:00:00,,0826.4,5.00,0.00,29.8,27.7,00.0,38.5,31.5,32.2,0001.7,0012.56,0007.85,0007.43
2022-08-02 14:01:00,,0826.4,4.99,0.00,29.7,27.8,00.0,38.5,31.5,32.2,0001.7,0012.78,0008.08,0007.65
2022-08-02 14:02:00,,0826.4,5.01,0.00,29.7,28.0,00.0,38.5,31.6,30.2,0001.6,0013.03,0008.30,0007.86
2022-08-02 14:03:00,,0826.5,4.99,0.00,29.7,28.1,00.0,38.5,31.6,29.9,0001.7,0013.21,0008.48,0008.04
2022-08-02 14:04:00,,0826.4,5.00,0.00,29.7,28.3,00.0,38.5,31.6,31.2,0001.9,0013.60,0008.66,0008.19
2022-08-02 14:05:00,,0826.5,5.00,0.00,29.7,28.4,00.0,38.5,31.6,31.4,0001.9,0013.83,0008.71,0008.21
2022-08-02 14:06:00,,0826.5,5.01,0.00,29.8,28.5,00.0,38.5,31.7,29.5,0001.9,0013.89,0008.66,0008.18
2022-08-02 14:07:00,,0826.5,5.01,0.00,29.8,28.6,00.0,38.6,31.7,30.7,0002.2,0013.04,0008.66,0008.14
2022-08-02 14:08:00,,0826.5,5.00,0.00,29.8,28.7,00.0,38.6,31.7,30.7,0002.1,0012.70,0008.64,0008.14
2022-08-02 14:09:00,,0826.5,4.99,0.00,29.8,28.8,00.0,38.6,31.8,27.9,0002.1,0012.33,0008.62,0008.14
2022-08-02 14:10:00,,0826.5,5.00,0.00,29.9,28.7,00.0,38.6,31.8,26.4,0001.8,0012.40,0008.60,0008.14
2022-08-02 14:11:00,,0826.5,5.01,0.00,29.9,28.1,00.0,38.5,31.7,25.9,0001.5,0012.41,0008.60,0008.15
2022-08-02 14:12:00,,0826.5,5.01,0.00,29.8,27.7,00.0,38.5,31.6,26.3,0001.5,0012.54,0008.67,0008.20
2022-08-02 14:13:00,,0826.4,4.99,0.00,29.8,27.6,00.0,38.5,31.5,26.7,0001.7,0013.23,0008.73,0008.26
2022-08-02 14:14:00,,0826.5,5.01,0.00,29.7,27.7,00.0,38.5,31.5,26.5,0001.9,0013.27,0008.81,0008.35
2022-08-02 14:15:00,,0826.5,4.99,0.00,29.7,27.8,00.0,38.5,31.5,28.4,0001.9,0013.70,0008.88,0008.43
2022-08-02 14:16:00,,0826.4,5.00,0.00,29.7,28.0,00.0,38.5,31.5,28.2,0002.0,0014.20,0008.91,0008.51
2022-08-02 14:17:00,,0826.5,5.00,0.00,29.7,28.1,00.0,38.5,31.6,27.9,0002.1,0014.24,0008.98,0008.59
2022-08-02 14:18:00,,0826.5,5.01,0.00,29.7,28.2,00.0,38.5,31.6,28.2,0001.8,0014.17,0009.00,0008.66
2022-08-02 14:19:00,,0826.5,5.00,0.00,29.7,28.4,00.0,38.5,31.6,28.4,0001.5,0014.95,0009.06,0008.71
2022-08-02 14:20:00,,0826.4,5.00,0.00,29.7,28.5,00.0,38.5,31.7,28.2,0001.7,0014.96,0009.13,0008.76
2022-08-02 14:21:00,,0826.5,5.00,0.00,29.8,28.6,00.0,38.5,31.7,28.5,0001.9,0014.70,0009.21,0008.81
2022-08-02 14:22:00,,0826.5,4.99,0.00,29.8,28.7,00.0,38.5,31.8,28.7,0002.1,0015.05,0009.33,0008.87
2022-08-02 14:23:00,,0826.5,5.01,0.00,29.8,28.8,00.0,38.6,31.8,27.9,0002.2,0015.78,0009.41,0008.90
2022-08-02 14:24:00,,0826.5,5.01,0.00,29.8,28.7,00.0,38.6,31.8,28.3,0002.2,0015.54,0009.49,0008.95
2022-08-02 14:25:00,,0826.5,4.99,0.00,29.8,28.0,00.0,38.5,31.6,27.7,0001.9,0015.78,0009.59,0009.01
2022-08-02 14:26:00,,0826.5,5.00,0.00,29.8,27.5,00.0,38.5,31.5,28.0,0002.0,0015.66,0009.70,0009.06
2022-08-02 14:27:00,,0826.5,5.01,0.00,29.7,27.5,00.0,38.5,31.5,28.1,0002.0,0015.39,0009.80,0009.12
2022-08-02 14:28:00,,0826.5,4.99,0.00,29.7,27.6,00.0,38.5,31.5,27.9,0001.9,0015.37,0009.88,0009.17
2022-08-02 14:29:00,,0826.5,5.01,0.00,29.6,27.7,00.0,38.5,31.4,28.3,0002.3,0015.55,0009.95,0009.20
2022-08-02 14:30:00,,0826.5,4.99,0.00,29.6,27.9,00.0,38.5,31.5,29.4,0002.5,0015.23,0009.97,0009.22
2022-08-02 14:31:00,,0826.5,5.00,0.00,29.6,28.1,00.0,38.5,31.5,28.8,0002.5,0015.17,0010.02,0009.24
2022-08-02 14:32:00,,0826.5,5.00,0.00,29.7,28.2,00.0,38.5,31.6,29.6,0002.6,0015.17,0010.04,0009.27
2022-08-02 14:33:00,,0826.5,5.00,0.00,29.7,28.3,00.0,38.5,31.6,29.4,0002.7,0015.17,0010.03,0009.29
2022-08-02 14:34:00,,0826.4,5.00,0.00,29.7,28.5,00.0,38.5,31.6,29.2,0002.7,0014.94,0010.01,0009.31
2022-08-02 14:35:00,,0826.5,5.00,0.00,29.7,28.6,00.0,38.5,31.7,27.0,0002.6,0014.47,0010.04,0009.35
2022-08-02 14:36:00,,0826.4,5.00,0.00,29.8,28.7,00.0,38.5,31.7,26.6,0002.7,0014.43,0010.07,0009.40
2022-08-02 14:37:00,,0826.5,5.00,0.00,29.8,28.7,00.0,38.5,31.7,26.6,0002.6,0014.27,0010.05,0009.43
2022-08-02 14:38:00,,0826.5,5.00,0.00,29.8,28.2,00.0,38.5,31.6,27.2,0002.7,0013.87,0010.04,0009.45
2022-08-02 14:39:00,,0826.5,4.99,0.00,29.7,27.6,00.0,38.5,31.5,27.8,0002.9,0013.81,0010.04,0009.45
2022-08-02 14:40:00,,0826.5,5.01,0.00,29.7,27.5,00.0,38.5,31.5,26.6,0002.6,0013.70,0010.05,0009.47
2022-08-02 14:41:00,,0826.5,4.99,0.00,29.6,27.5,00.0,38.4,31.4,26.5,0002.4,0013.71,0010.11,0009.52
2022-08-02 14:42:00,,0826.5,5.01,0.00,29.6,27.7,00.0,38.4,31.4,26.8,0002.3,0013.45,0010.13,0009.57
2022-08-02 14:43:00,,0826.5,5.00,0.00,29.6,27.8,00.0,38.4,31.5,26.0,0002.1,0013.38,0010.12,0009.58
2022-08-02 14:44:00,,0826.5,4.99,0.00,29.6,28.0,00.0,38.4,31.5,26.4,0001.8,0013.44,0010.16,0009.63
2022-08-02 14:45:00,,0826.5,5.00,0.00,29.6,28.2,00.0,38.4,31.5,25.6,0001.7,0013.23,0010.24,0009.70
2022-08-02 14:46:00,,0826.5,5.00,0.00,29.7,28.3,00.0,38.4,31.6,25.4,0001.7,0013.39,0010.29,0009.74
2022-08-02 14:47:00,,0826.5,5.00,0.00,29.7,28.4,00.0,38.5,31.7,25.5,0001.4,0013.60,0010.30,0009.76
2022-08-02 14:48:00,,0826.5,5.00,0.00,29.7,28.5,00.0,38.5,31.7,26.7,0001.3,0013.64,0010.31,0009.77
2022-08-02 14:49:00,,0826.5,5.00,0.00,29.8,28.7,00.0,38.5,31.7,27.1,0001.0,0013.73,0010.34,0009.79
2022-08-02 14:50:00,,0826.5,5.00,0.00,29.8,28.6,00.0,38.5,31.7,27.6,0001.1,0013.81,0010.36,0009.80
2022-08-02 14:51:00,,0826.5,4.99,0.00,29.8,27.9,00.0,38.5,31.6,28.1,0001.3,0013.94,0010.39,0009.82
2022-08-02 14:52:00,,0826.5,5.01,0.00,29.7,27.5,00.0,38.4,31.5,28.5,0001.3,0013.99,0010.36,0009.81
2022-08-02 14:53:00,,0826.5,4.98,0.00,29.7,27.4,00.0,38.4,31.4,28.6,0001.4,0014.30,0010.39,0009.82
2022-08-02 14:54:00,,0826.5,5.02,0.00,29.6,27.5,00.0,38.4,31.4,27.8,0001.4,0015.13,0010.38,0009.82
2022-08-02 14:55:00,,0826.5,4.99,0.00,29.6,27.6,00.0,38.4,31.4,27.2,0001.4,0015.32,0010.38,0009.80
2022-08-02 14:56:00,,0826.5,5.00,0.00,29.6,27.8,00.0,38.4,31.4,27.6,0001.3,0015.25,0010.35,0009.77
2022-08-02 14:57:00,,0826.5,5.01,0.00,29.6,28.0,00.0,38.4,31.4,27.8,0001.4,0015.06,0010.31,0009.74
2022-08-02 14:58:00,,0826.5,5.00,0.00,29.6,28.1,00.0,38.4,31.5,27.1,0001.6,0015.05,0010.32,0009.71
2022-08-02 14:59:00,,0826.5,5.00,0.00,29.6,28.3,00.0,38.4,31.5,27.7,0001.9,0015.31,0010.33,0009.68
